Hourly Data Report for October 22, 2013

All times are specified in Local Standard Time (LST). Add 1 hour to adjust for Daylight Saving Time where and when it is observed.

IQALUIT CLIMATE
NUNAVUT

63°44'50.000" N
68°32'40.000" W
33.50 m
2402592
71321
XFB

Download Data

Hourly Data (October 2013)
Hourly Data Report for October 22, 2013
Temp Definition
°C
Dew Point Temp Definition
°C
Rel Hum Definition
%
Wind Dir Definition
10's deg

Wind Spd Definition
km/h
Visibility Definition
km
Stn Press Definition
kPa
Hmdx Definition


Wind Chill Definition


Weather Definition


TIME
00:00 -1.1 -1.1 100 31 4   101.31   -2 LegendNANA
01:00 -1.1 -1.1 100 14 6   101.32   -3 LegendNANA
02:00 -0.8 -0.8 100 14 4   101.36   -2 LegendNANA
03:00 -0.3 -1.4 92 14 6   101.39   -2 LegendNANA
04:00 -0.2 -1.3 92 14 7   101.40   -3 LegendNANA
05:00 -0.5 -0.5 100 17 4   101.40   -2 LegendNANA
06:00 -1.1 -1.1 100 2 2   101.38   -2 LegendNANA
07:00 -1.5 -2.1 96 36 2   101.35   -2 LegendNANA
08:00 -0.6 -1.9 91 32 4   101.32   -2 LegendNANA
09:00 0.6 -2.0 83 6 9   101.30     LegendNANA
10:00 1.2 -2.3 77 7 6   101.26     LegendNANA
11:00 1.2 -1.3 83 30 6   101.25     LegendNANA
12:00 1.8 -2.1 75 29 4   101.22     LegendNANA
13:00 1.2 -1.6 82 3 4   101.20     LegendNANA
14:00 1.0 -0.7 88 1 6   101.21     LegendNANA
15:00 0.9 -0.4 91 36 7   101.19     LegendNANA
16:00 1.1 -0.9 86 4 7   101.18     LegendNANA
17:00 0.5 -0.9 90 8 11   101.18     LegendNANA
18:00 0.5 -1.2 88 7 9   101.20     LegendNANA
19:00 0.3 -1.4 88 8 9   101.20     LegendNANA
20:00 0.1 -1.5 89 8 7   101.16     LegendNANA
21:00 0.2 -2.0 85 9 11   101.13     LegendNANA
22:00 -0.1 -1.5 90 17 6   101.11   -2 LegendNANA
23:00 -0.5 -1.3 94 33 4   101.09   -2 LegendNANA

Notes on Data Quality.

Legend

  • E = Estimated
  • M = Missing
  • NA = Not Available
  • ‡ = Partner data that is not subject to review by the National Climate Archives
Date modified: